Theta_e
344 341 336 335 335 337 340 332 332 332 332 331 336 342 343 342 341 337 332 331 333 336 337 337 337 339 339 337 338 335 339 338 332 330 331 334 338 338 333 335 329 326 322
342 340 335 333 333 333 332 331 334 335 333 332 331 330 331 331 331 331 331 331 334 334 332 340 337 338 341 337 336 326 332 331 329 327 325 326 333 335 325 335 334 332 332
341 341 335 332 330 330 330 331 336 338 336 332 336 334 338 336 341 340 336 335 337 339 340 332 330 332 340 328 324 328 333 339 336 334 335 327 322 321 322 323 335 337 333
341 341 339 333 330 329 330 331 335 338 338 333 339 338 335 339 338 340 339 342 336 339 332 326 324 333 338 335 333 329 336 332 325 326 332 328 320 321 339 323 329 332 325
342 342 340 340 336 330 330 330 332 334 338 334 331 332 333 334 336 339 339 337 335 339 337 324 323 329 339 332 336 332 329 331 326 324 329 328 324 321 331 337 329 329 330
343 342 341 341 341 340 336 332 333 335 338 335 332 330 330 332 336 338 333 337 338 339 331 325 325 334 329 331 337 337 338 338 334 324 325 332 334 328 322 333 335 331 334
342 341 341 342 341 340 339 340 336 337 338 335 334 335 332 331 331 335 332 335 333 341 329 329 329 333 340 339 341 342 342 339 338 336 335 331 329 329 325 326 335 329 325
339 341 342 342 342 340 338 338 340 338 338 336 336 337 331 332 330 337 330 334 334 338 326 332 337 338 339 339 340 341 339 338 338 336 336 332 331 333 330 326 327 331 323
337 340 342 342 341 339 336 336 338 338 337 336 337 340 337 334 333 334 333 334 335 325 324 334 332 336 337 339 341 340 339 339 339 340 340 333 328 327 335 328 324 326 328
336 338 339 339 338 336 334 335 336 337 337 336 338 339 340 339 339 335 332 335 339 328 325 328 330 333 337 339 340 342 341 339 339 341 342 342 335 335 325 327 326 323 331
339 339 341 339 335 333 333 333 335 336 336 336 338 340 341 340 340 339 340 335 334 333 328 330 329 332 336 339 340 342 342 339 339 342 343 343 340 336 326 323 324 326 324
339 341 340 343 336 333 333 334 334 335 335 336 340 340 339 338 339 339 339 340 339 334 329 335 330 331 331 338 340 342 341 341 341 344 345 344 342 339 329 325 324 323 328
339 344 341 343 338 335 334 334 335 334 334 335 339 340 337 337 337 338 339 340 339 339 341 330 337 331 330 332 339 340 341 342 344 344 342 344 343 341 335 334 328 324 324
340 345 343 341 340 334 334 333 333 333 333 334 336 340 338 337 337 336 337 338 340 338 338 332 329 330 328 328 331 334 337 340 343 343 344 344 344 341 341 339 339 334 328
343 346 343 340 339 338 337 335 334 334 334 334 334 336 340 340 337 339 340 342 341 339 337 338 334 331 329 333 335 336 336 340 343 343 344 344 343 343 343 343 341 341 339
345 346 344 338 338 337 339 340 338 336 336 336 335 336 338 340 340 340 345 344 344 339 336 336 340 338 333 330 334 334 338 340 341 341 343 343 343 344 345 344 342 342 340
347 346 348 342 338 339 339 341 342 341 340 338 337 337 338 339 341 342 344 345 344 343 340 338 341 344 342 335 330 335 343 343 340 339 343 345 344 344 344 344 342 343 342
348 348 349 347 347 338 338 340 340 340 342 343 339 340 340 341 343 344 343 344 344 344 344 343 342 342 344 343 339 335 341 341 343 344 344 343 344 344 344 343 342 343 343
350 349 350 349 348 343 339 339 340 340 341 344 344 342 341 342 344 344 344 342 342 344 344 343 344 345 343 343 343 343 342 343 344 344 345 344 344 344 344 344 344 344 343
351 350 350 349 348 345 343 340 340 340 341 342 343 343 343 342 341 343 342 341 341 342 343 342 342 344 343 343 344 343 342 342 343 344 343 342 342 344 342 342 344 345 344
351 351 351 349 348 345 340 338 339 340 340 339 340 344 342 342 341 344 341 341 342 341 341 342 342 342 341 341 342 342 342 339 340 343 343 343 343 341 341 342 342 342 343
350 351 351 350 347 342 337 334 335 338 341 339 339 343 345 344 344 344 342 341 342 344 342 341 341 341 341 342 340 342 342 339 338 340 341 341 342 342 342 342 343 343 342
350 351 350 351 348 343 337 336 335 337 338 339 339 340 340 342 342 343 342 343 343 344 343 339 340 342 341 341 341 340 341 339 338 339 340 341 341 342 342 341 340 340 341
350 351 351 351 349 347 342 337 334 333 334 336 339 342 342 342 340 342 340 342 343 343 343 343 340 339 340 340 340 340 340 339 338 340 340 340 340 341 341 340 339 341 341
350 350 351 351 350 349 343 337 335 334 338 340 341 339 342 342 341 338 338 337 339 342 342 344 343 339 341 340 340 341 340 339 338 340 340 340 339 339 340 340 339 338 335
350 350 351 352 351 348 344 337 336 336 336 339 338 339 343 342 339 334 334 339 341 342 343 345 344 342 338 339 339 339 338 338 339 339 340 339 339 339 339 340 341 337 336
Wind_Speed
23 21 22 22 22 21 19 16 15 15 15 15 15 16 16 13 12 12 12 12 13 11 10 9 10 12 13 12 12 11 13 13 11 12 12 14 13 12 11 12 12 11 11
26 24 23 22 22 22 19 16 15 14 13 14 15 15 15 14 13 12 12 12 12 10 10 11 14 14 14 13 11 12 13 11 12 11 12 11 13 12 11 13 12 11 13
25 26 24 22 22 22 20 17 16 13 12 12 13 15 14 13 13 12 11 11 10 9 10 10 12 15 12 12 14 16 16 14 14 13 12 10 10 11 11 12 13 11 11
25 27 25 23 22 22 21 20 16 14 12 13 14 13 14 13 13 12 10 12 11 10 9 10 12 16 15 13 16 18 17 14 13 12 11 10 9 11 11 12 13 11 10
24 26 26 24 21 21 20 19 17 15 13 12 12 12 13 13 13 11 11 11 11 12 9 11 14 16 15 16 18 18 19 16 14 13 12 10 9 11 12 12 11 11 11
25 25 24 23 21 20 20 19 18 16 13 12 12 12 13 13 13 11 11 11 12 13 9 13 14 16 17 18 20 19 18 15 13 13 12 10 8 9 10 10 10 9 9
24 24 24 22 20 19 19 18 18 16 14 12 12 12 11 11 11 10 10 11 12 12 10 14 15 16 18 19 15 12 12 13 11 12 11 9 9 7 8 8 7 8 8
22 24 24 23 20 18 18 18 17 17 15 13 13 12 11 10 10 10 10 11 11 10 10 16 16 18 18 15 14 12 9 10 11 10 9 8 8 8 7 7 7 7 6
22 23 24 24 22 20 19 18 17 16 15 14 12 13 11 11 10 10 11 11 11 9 13 16 17 18 16 14 13 11 9 11 11 9 7 6 6 6 6 6 6 6 6
19 18 19 20 22 21 20 19 18 17 16 14 13 12 12 12 11 10 10 11 11 9 13 16 17 18 16 15 13 10 8 10 9 6 4 2 2 5 5 5 6 6 6
21 20 19 22 21 21 21 20 19 18 16 15 13 13 13 13 12 11 11 11 11 10 13 15 17 17 17 15 13 10 8 9 8 4 2 4 3 1 3 5 6 6 7
21 22 22 20 22 21 21 21 20 19 17 16 15 14 14 15 14 13 12 11 11 11 12 15 16 17 18 17 16 14 10 10 8 3 2 6 6 3 3 5 6 7 7
17 15 19 22 23 22 21 22 21 20 18 17 17 15 14 15 15 15 13 12 12 12 12 15 17 17 17 20 19 16 13 12 10 6 4 6 7 4 5 5 6 7 8
19 14 15 22 23 24 23 22 21 21 20 19 18 17 17 17 15 14 13 13 11 11 12 13 15 17 18 19 19 18 17 16 14 11 9 9 8 6 5 6 6 7 8
22 17 15 19 24 24 23 22 22 22 21 20 19 18 18 17 16 15 14 13 12 12 12 14 14 16 18 19 18 18 18 19 17 15 11 9 10 8 7 8 8 8 8
25 21 17 17 19 24 24 23 23 22 21 21 20 19 19 18 16 16 15 14 14 13 13 13 13 15 17 19 20 19 18 19 18 17 14 13 12 10 10 8 9 9 10
24 24 19 17 16 19 22 23 23 23 22 22 22 20 20 19 18 18 17 17 16 14 13 14 16 15 15 18 20 22 18 16 19 20 17 12 15 12 10 13 11 11 11
27 27 21 19 18 18 18 19 20 24 24 23 22 21 21 20 20 18 19 18 17 17 17 16 17 16 17 17 17 22 20 19 19 20 21 17 15 15 15 13 14 15 14
26 27 24 21 18 18 18 18 17 20 25 23 22 23 22 21 21 20 19 18 19 20 21 20 19 19 17 18 18 17 20 21 21 20 19 18 16 16 16 15 17 16 17
28 26 25 21 18 17 18 18 17 20 22 22 21 21 22 21 20 21 20 19 19 20 22 23 22 21 19 18 18 17 15 17 19 19 19 19 19 18 18 18 18 20 20
30 29 28 24 22 20 21 21 19 20 22 24 22 19 17 19 19 19 17 19 21 23 24 22 23 22 20 20 20 18 17 16 21 22 21 21 20 20 20 21 23 24 25
32 30 29 26 24 22 20 16 14 12 16 19 20 19 18 19 18 20 21 21 23 24 26 25 25 24 23 23 21 17 18 20 21 24 24 24 24 23 23 24 27 27 29
34 34 31 28 25 23 19 18 16 14 14 16 20 19 18 18 17 18 20 21 23 25 27 31 29 24 25 23 21 18 8 11 13 20 26 27 27 26 24 25 26 26 24
38 35 32 29 26 23 21 21 19 17 15 14 11 9 11 13 14 15 17 18 22 27 30 31 29 29 25 23 22 23 23 20 13 11 17 24 26 27 25 22 22 19 17
41 37 35 30 26 24 23 21 20 18 14 11 11 10 11 11 12 13 15 17 20 21 25 29 31 30 22 20 21 22 24 26 26 23 18 17 19 18 20 18 19 17 15
44 40 36 32 28 26 25 22 21 18 16 14 13 10 9 11 11 11 11 12 13 13 16 22 27 27 29 22 19 21 22 24 26 27 29 31 30 28 26 24 23 20 18
Wind_Direction
166 167 165 166 167 164 161 155 145 138 137 140 145 151 155 159 150 143 140 139 136 135 140 143 140 137 142 137 133 130 124 128 130 122 123 119 121 122 129 120 122 123 121
159 165 164 167 167 166 163 155 147 140 136 138 143 147 151 152 146 144 143 143 139 134 124 131 137 126 133 138 143 141 133 125 122 119 123 134 141 141 127 127 123 118 122
163 164 163 167 168 167 166 161 156 147 140 140 141 148 145 144 140 140 145 143 146 139 135 139 138 130 136 134 129 128 123 120 111 110 121 121 131 136 129 133 128 129 130
168 166 164 164 168 169 168 167 162 153 149 146 148 151 151 147 146 147 146 148 153 146 138 144 140 138 137 123 120 124 128 128 120 117 119 129 124 132 130 136 139 142 136
174 173 167 166 167 169 170 170 168 164 158 153 154 155 153 151 152 150 151 147 149 146 139 146 143 138 136 139 136 126 122 118 113 117 119 121 127 134 141 138 139 143 143
177 177 173 170 170 170 171 173 173 171 165 160 155 154 154 155 157 155 153 149 149 148 147 151 146 146 145 140 137 130 129 120 111 113 121 119 125 130 147 146 151 149 150
176 179 180 177 178 177 174 175 176 172 170 164 154 151 151 151 156 153 153 155 154 153 154 158 150 150 146 145 144 139 137 139 127 122 121 122 131 131 148 165 164 164 165
179 181 184 183 184 185 183 180 179 176 175 171 162 158 156 154 152 161 154 157 156 157 161 164 160 157 152 150 146 143 138 146 138 132 126 128 145 142 157 170 175 180 172
182 186 187 186 188 188 188 187 182 181 179 176 169 163 161 157 153 160 160 157 159 158 164 168 169 168 164 159 155 146 131 141 140 129 114 121 151 158 168 177 186 187 187
182 189 192 195 192 190 188 189 185 186 184 181 178 171 167 167 167 166 166 168 164 162 166 172 176 177 175 173 167 155 144 150 156 142 145 142 125 173 189 192 196 196 199
187 192 191 197 199 195 189 189 188 188 190 183 186 182 174 171 174 172 179 172 170 170 170 176 180 183 184 181 176 173 168 160 161 158 170 195 202 213 234 214 207 211 212
178 191 200 193 198 198 193 190 191 190 191 188 188 189 182 176 177 176 179 178 177 175 175 180 184 189 194 192 190 190 187 181 182 197 261 230 216 243 222 222 218 218 219
186 182 193 195 196 198 199 196 194 195 195 192 191 194 190 188 186 189 186 187 183 182 187 185 189 195 197 200 198 203 200 201 206 217 219 224 207 226 225 230 228 225 225
194 188 189 195 198 198 201 203 203 201 201 200 196 198 196 197 198 197 194 190 191 193 191 190 195 197 199 202 206 210 216 214 216 224 229 225 217 222 237 235 237 236 234
200 192 185 190 196 198 203 206 207 207 209 207 205 205 206 205 206 203 203 203 200 202 202 200 197 200 205 206 210 213 216 213 219 227 230 234 238 233 253 239 243 243 239
204 199 191 186 192 202 206 209 210 212 211 212 213 213 212 213 213 212 213 208 209 208 209 208 203 207 210 213 213 213 212 218 225 229 235 236 239 248 253 256 250 251 249
198 201 199 193 193 199 207 213 215 213 213 215 216 220 221 217 214 215 216 218 215 210 206 207 208 211 211 215 218 213 220 227 233 238 238 246 239 241 249 253 266 264 263
203 201 203 201 203 203 204 210 219 221 218 217 217 219 220 221 220 220 223 224 220 217 216 213 213 218 220 219 218 222 232 236 239 242 236 244 242 247 252 261 262 267 270
207 205 206 207 209 208 209 210 222 220 221 221 219 220 222 223 226 229 229 229 226 225 224 221 223 226 223 225 226 232 238 240 240 237 243 246 249 245 255 257 264 266 270
211 209 214 213 210 209 211 212 217 215 219 223 223 224 225 227 224 230 229 231 234 231 235 233 232 230 232 230 234 239 241 240 239 240 241 245 247 250 257 261 263 267 272
215 211 212 214 210 208 206 210 216 215 216 221 223 223 225 227 230 228 233 235 236 235 238 240 243 240 239 237 238 240 245 252 248 242 248 250 250 251 258 265 270 272 277
220 214 212 213 211 213 212 216 223 220 218 219 220 223 227 230 236 244 247 244 246 243 241 244 244 241 234 238 240 245 257 262 253 246 248 249 253 259 264 270 273 272 279
220 217 212 214 211 213 213 209 210 205 208 213 215 226 232 234 239 247 253 250 250 245 244 241 239 243 243 235 230 231 231 242 261 256 251 253 255 256 263 265 272 275 279
221 219 215 215 212 212 212 212 213 215 211 207 216 228 235 241 247 257 257 263 260 254 247 242 240 238 241 234 230 236 239 253 267 274 262 251 251 253 259 262 269 275 276
222 218 217 215 214 213 213 216 213 213 211 211 216 220 246 250 256 262 270 274 275 265 256 247 232 225 229 236 242 245 252 256 257 251 260 262 258 255 259 262 270 270 266
222 217 217 216 215 215 215 215 214 214 209 210 218 229 249 251 251 262 278 285 282 276 263 244 239 239 223 237 251 253 255 256 258 257 257 260 263 266 265 272 267 262 267